{"data":{"norad_id":68135,"intl_designator":"2026-047G","name":"HULIANWANG DIGUI-161","alt_names":[],"object_type":"PAYLOAD","status":"ACTIVE","operator":null,"country":"PRC","launch_date":"2026-03-12","launch_site_code":"WSC","launch_vehicle":null,"mission":null,"orbit_class":"UNKNOWN","rcs_meters":null,"size_class":null,"mass_kg":null,"dimensions":null,"purposes":[],"wikipedia_slug":null,"has_3d_model":false,"image_url":null,"decayed_at":null,"tle_current":{"epoch":"2026-09-20T21:22:39.030528Z","epoch_age_seconds":45310,"freshness":"FRESH","line1":"1 68135U 26047G   26263.89072952 -.00000104  00000+0  44257-4 0  9994","line2":"2 68135  50.0089  72.8679 0001150  86.9736 273.1268 13.29328957 25805","mean_motion":13.29328957,"eccentricity":0.000115,"inclination_deg":50.0089,"raan_deg":72.8679,"arg_perigee_deg":86.9736,"mean_anomaly_deg":273.1268,"bstar":4.4257e-5,"rev_number":2580,"period_min":108.32533154546,"perigee_km":1148.4297542721,"apogee_km":1150.1610637262,"semimajor_km":7527.4324089991,"source":"CELESTRAK","updated_at":"2026-09-21T09:00:17.095300Z"}}}